Simultaneous Nadir Overpasses (SNOs) Predictions

Prediction of SNOs between AQUA and NOAA-19 Satellite Orbit:

Table of predicted SNOs for the next 14.0 days since TLE Epoch: 9/4/2021
Index Date (AQUA) Time (AQUA) Lat,Lon (AQUA) SZA (AQUA ) Date (NOAA-19) Time (NOAA-19) Lat,Lon (NOAA-19) SZA (NOAA-19 ) Distance(km) Time Diff (sec)
1 09/04/2021 23:28:17 78.53, 166.75 72.44 09/04/2021 23:27:30 78.50, 166.70 72.43 3.38 47
2 09/05/2021 00:17:44 -78.56, -25.77 107.51 09/05/2021 00:18:29 -78.54, -25.82 107.54 3.07 45
3 09/07/2021 05:51:28 78.53, 70.96 73.27 09/07/2021 05:51:37 78.52, 70.84 73.26 3.20 9
4 09/09/2021 11:25:12 -78.52, 167.59 105.93 09/09/2021 11:24:43 -78.51, 167.63 105.93 1.11 29
5 09/09/2021 12:14:39 78.54, -24.85 74.11 09/09/2021 12:15:43 78.56, -24.79 74.11 3.24 64
6 09/11/2021 16:58:56 78.50, -95.75 74.88 09/11/2021 16:57:52 78.49, -95.73 74.89 1.53 64
7 09/11/2021 17:48:23 -78.52, 71.78 105.08 09/11/2021 17:48:49 -78.54, 71.86 105.08 2.45 26
8 09/13/2021 23:22:07 78.51, 168.40 75.75 09/13/2021 23:21:59 78.50, 168.37 75.74 2.17 8
9 09/14/2021 00:11:43 -78.90, -26.10 103.73 09/14/2021 00:12:46 -78.87, -21.70 104.07 94.38 63
10 09/16/2021 04:55:51 -78.50, -94.99 103.43 09/16/2021 04:55:04 -78.47, -94.99 103.44 3.90 47



Historial Predications of SNOs between AQUA and NOAA-19
